www.pogodaiklimat.ru

Погода и климат >> Архив погоды >> Малайзия >> Kuantan


ПОГОДА в Kuantan

  • Прогноз погоды в Kuantan
  • Монитор погоды в Kuantan
  • Климат города

АРХИВ ПОГОДЫ в Kuantan

Время (UTC), дата Ветер
(напр.,м/с)
 
Видим.   Явления Облачность Т
(С)
Тd
(С)
f
(%)
Тe
(С)
Тes
(С)
Комфортность P
(гПа)
Po
(гПа)
Тmin
(С)
Tmax
(С)
R
(мм)
R24
(мм)
S
(см)
06 15.10 СВ 2 15 км осадки на расстоянии 9/3 570 м
[Cu med, cong Ac trans Ci sp]
+32.0 +26.8 74 +49 +58 опасность
перегрева
1010.3 1008.5
09 15.10 В 3 18 км мгла 9/3 500 м
[Cb cap Ac trans Ci sp]
+30.8 +26.1 76 +46 +48 опасность
перегрева
1008.4 1006.6
12 15.10 штиль 0 12 км гроза без осадков 9/4 480 м
[Cb cap Ac trans Ci sp]
+27.9 +24.9 84 +40 +40 очень
душно
1011.1 1009.3 +32.9
15 15.10 Ю 8 8000 м гроза, ливневой дождь 9/4 480 м
[Cb cap Ac trans Ci sp]
+24.5 +24.0 97 +34 +34 очень
душно
1014.1 1012.3
18 15.10 С 2 8000 м гроза, ливневой дождь 9/5 120 м
[Cb cap Ac trans Ci sp]
+23.9 +23.2 96 +32 +32 очень
душно
1012.1 1010.3 66
21 15.10 штиль 0 12 км дымка {гроза, дождь} 9/3 750 м
[Sc Ac trans Ci sp]
+23.5 +23.1 98 +31 +31 очень
душно
1010.9 1009.1
00 16.10 Ю 1 14 км дымка 9/3 150 м
[Sc Ac trans Ci sp]
+24.0 +23.6 98 +33 +33 очень
душно
1012.6 1010.8 +23.1 66
03 16.10 Ю 2 16 км мгла 6/1 600 м
[Cu hum Ac trans Ci sp]
+30.5 +25.8 76 +45 +55 опасность
перегрева
1013.4 1011.6
06 16.10 Ю 2 18 км мгла 8/4 500 м
[Cb cap Ac trans Ci sp]
+32.1 +26.6 73 +49 +57 опасность
перегрева
1010.4 1008.6
09 16.10 В 3 16 км мгла 8/3 500 м
[Cb cap Ac trans Ci sp]
+31.5 +26.6 75 +48 +50 опасность
перегрева
1008.1 1006.3
12 16.10 Ю 1 13 км зарница 9/4 500 м
[Cb calv Ac lent Ci sp]
+28.0 +25.4 86 +41 +41 опасность
перегрева
1010.5 1008.7 +28.7
15 16.10 В 1 11 км зарница 9/4 500 м
[Cb calv Ac lent Cs]
+25.9 +24.5 92 +36 +36 очень
душно
1013.2 1011.4
18 16.10 С 1 8000 м слабый дождь 9/5 500 м
[Cb cap Ac lent Cs]
+25.5 +24.9 96 +36 +36 очень
душно
1011.6 1009.8 0.0
21 16.10 С 1 6000 м в посл. час дождь 10/4 150 м
[Sc Ac trans Cs]
+24.7 +24.0 96 +34 +34 очень
душно
1011.1 1009.3
00 17.10 штиль 0 4500 м дымка 9/1 <50 м
[Cu hum Ac trans Ci sp]
+25.3 +24.4 95 +35 +36 очень
душно
1011.5 1009.7 +24.4 0.0
03 17.10 Ю 3 14 км мгла 8/1 600 м
[Cu med, cong Ac trans Ci sp]
+30.8 +25.7 74 +45 +52 опасность
перегрева
1012.6 1010.8
06 17.10 ЮЗ 4 14 км осадки на расстоянии 9/4 500 м
[Cb cap Ac lent Ci sp]
+33.6 +26.0 65 +50 +54 опасность
перегрева
1009.6 1007.8
09 17.10 В 4 14 км мгла 8/4 500 м
[Cb cap Ac trans Ci sp]
+31.8 +27.2 77 +50 +52 опасность
перегрева
1007.2 1005.5
12 17.10 С 2 10 км гроза без осадков 9/4 480 м
[Cb cap Ac trans Cs]
+27.3 +25.1 88 +39 +39 очень
душно
1009.3 1007.5 +34.3
15 17.10 СВ 1 4000 м гроза, ливневой дождь 9/6 120 м
[Cb cap Ac trans Cs]
+23.9 +23.2 96 +32 +32 очень
душно
1012.5 1010.7
18 17.10 В 1 6000 м гроза, ливневой дождь 10/6 150 м
[Cb cap Ac trans Cs]
+23.8 +23.3 97 +32 +32 очень
душно
1011.2 1009.4 14
21 17.10 штиль 0 6000 м слабый дождь 10/4 180 м
[St Ac lent Cs]
+23.7 +23.0 96 +31 +31 очень
душно
1009.6 1007.8
00 18.10 З 2 9000 м слабый дождь 9/5 150 м
[Sc Ac trans Cs]
+23.8 +23.0 95 +32 +32 очень
душно
1011.7 1009.9 +23.6 15
03 18.10 Ю 3 12 км мгла 9/1 300 м
[Cu hum Ac trans Ci sp]
+27.9 +24.8 83 +40 +46 очень
душно
1013.1 1011.3
06 18.10 Ю 3 15 км мгла 9/4 500 м
[Cb cap Ac trans Ci sp]
+31.0 +25.8 74 +46 +52 опасность
перегрева
1010.0 1008.2 0.0
09 18.10 Ю 2 12 км гроза без осадков 9/4 480 м
[Cb cap Ac trans Ci sp]
+31.0 +25.8 74 +46 +48 опасность
перегрева
1008.1 1006.3
12 18.10 ЮЗ 7 4000 м гроза, ливневой дождь 10/5 500 м
[Cb cap Ac trans Cs]
+23.2 +22.5 96 +32 +32 очень
душно
1013.0 1011.2 +32.8 31
15 18.10 ЮЗ 1 9000 м слабый ливневой дождь, в посл. час гроза 10/4 720 м
[Sc As op Cs]
+22.9 +22.6 98 +31 +31 очень
душно
1013.8 1012.0
18 18.10 штиль 0 6000 м слабый дождь 10/3 90 м
[Sc As op Cs]
+23.1 +22.7 98 +32 +32 очень
душно
1011.7 1009.9 2
21 18.10 штиль 0 4000 м дымка 9/3 <50 м
[Sc Ac trans Cs]
+23.1 +22.6 97 +32 +32 очень
душно
1010.9 1009.1
00 19.10 ЮЗ 2 8000 м дымка 9/4 150 м
[Sc Ac trans Cs]
+23.5 +22.7 95 +31 +31 очень
душно
1011.7 1009.9 +22.4 33
03 19.10 ЮЗ 4 18 км мгла 9/1 600 м
[Cu hum Ac As Ci sp]
+28.8 +24.8 79 +41 +46 опасность
перегрева
1011.9 1010.1
06 19.10 ЮЗ 4 18 км мгла 8/3 570 м
[Cu med, cong Ac trans Ci sp]
+32.6 +25.5 66 +47 +54 опасность
перегрева
1009.4 1007.6
09 19.10 СВ 2 6000 м осадки на расстоянии 9/4 500 м
[Cb cap Ac lent Ci sp]
+31.4 +26.5 75 +48 +50 опасность
перегрева
1008.1 1006.3
12 19.10 С 7 6000 м гроза, ливневой дождь 9/4 480 м
[Cb cap Ac trans Ci sp]
+24.6 +23.0 91 +33 +33 очень
душно
1010.4 1008.6 +33.4 12
15 19.10 ЮЗ 1 6000 м гроза, ливневой дождь 9/4 120 м
[Cb cap Ac trans Ci sp]
+23.5 +22.8 96 +31 +31 очень
душно
1012.9 1011.1
18 19.10 штиль 0 6000 м гроза, ливневой дождь 9/4 120 м
[Cb cap Ac trans Cs]
+23.3 +22.8 97 +32 +32 очень
душно
1011.7 1009.9 10
21 19.10 штиль 0 12 км в посл. час дождь {гроза} 9/5 300 м
[Sc Ac trans Cs]
+23.0 +22.5 97 +32 +32 очень
душно
1010.8 1009.0
00 20.10 З 1 8000 м дымка 9/3 150 м
[Sc Ac trans Ci sp]
+23.5 +22.8 96 +31 +32 очень
душно
1012.0 1010.2 +22.7 23
03 20.10 Ю 3 18 км мгла 8/1 600 м
[Cu hum Ac trans Ci sp]
+29.8 +25.3 77 +44 +51 опасность
перегрева
1012.6 1010.8
06 20.10 Ю 3 18 км мгла 8/3 570 м
[Cu med, cong Ac trans Ci sp]
+32.1 +25.6 69 +47 +54 опасность
перегрева
1009.6 1007.8
09 20.10 ЮВ 2 18 км мгла 8/3 570 м
[Cu med, cong Ac trans Ci fib]
+32.4 +27.3 75 +51 +54 опасность
перегрева
1008.0 1006.3
12 20.10 штиль 0 16 км зарница 9/4 500 м
[Cb cap Ac trans Ci sp]
+28.4 +26.3 88 +43 +43 опасность
перегрева
1009.9 1008.1 +33.7
15 20.10 ЮЗ 2 14 км зарница 9/4 500 м
[Cb cap Ac trans Ci sp]
+27.5 +25.7 90 +41 +41 опасность
перегрева
1012.6 1010.8
18 20.10 штиль 0 14 км зарница 9/4 500 м
[Cb cap Ac trans Ci sp]
+26.6 +25.1 91 +38 +38 очень
душно
1011.7 1009.9
21 20.10 С 1 8000 м гроза, ливневой дождь 9/4 500 м
[Cb cap Ac lent Cs]
+25.7 +24.8 95 +36 +36 очень
душно
1011.0 1009.2
00 21.10 СЗ 1 6000 м слабый дождь {гроза} 9/5 150 м
[Cb cap Ac lent Cs]
+25.2 +24.3 95 +35 +35 очень
душно
1013.0 1011.2 +23.5 0.4
03 21.10 ЮЗ 2 16 км мгла {дождь} 9/5 600 м
[Cu med, cong Ac lent Ci sp]
+30.9 +26.9 79 +48 +53 опасность
перегрева
1013.7 1011.9
06 21.10 ЮВ 3 16 км мгла 9/4 500 м
[Cb cap Ac trans Ci sp]
+31.7 +26.8 75 +49 +55 опасность
перегрева
1011.3 1009.5 0.0
09 21.10 Ю 1 14 км мгла 9/4 500 м
[Cb cap Ac trans Ci sp]
+31.6 +26.1 73 +48 +50 опасность
перегрева
1009.0 1007.2
12 21.10 В 1 12 км зарница 9/4 500 м
[Cb cap Ac trans Ci sp]
+28.7 +25.6 83 +42 +42 опасность
перегрева
1011.3 1009.5 +32.3
15 21.10 штиль 0 10 км гроза без осадков 9/4 480 м
[Cb cap Ac trans Ci sp]
+26.2 +24.0 88 +36 +36 очень
душно
1013.8 1012.0
18 21.10 В 1 12 км мгла 9/3 720 м
[Sc Ac As Ci sp]
+25.2 +23.9 93 +35 +35 очень
душно
1012.7 1010.9
21 21.10 С 2 7000 м дымка 9/4 150 м
[St Ac lent Ci sp]
+24.1 +23.6 97 +33 +33 очень
душно
1010.6 1008.8
00 22.10 С 2 4000 м дымка 9/3 90 м
[Sc Ac trans Ci sp]
+24.9 +24.0 95 +34 +35 очень
душно
1012.7 1010.9 +23.8 0.0
03 22.10 В 1 18 км мгла 9/3 600 м
[Cu med, cong Ac trans Ci sp]
+31.3 +26.3 75 +47 +54 опасность
перегрева
1012.8 1011.0

 

Местоположение метеостанции Kuantan (Малайзия): широта 3.78 долгота 103.21 высота над уровнем моря 16 м.

В архиве по умолчанию представлена погода в Kuantan за последнюю неделю. Архивные данные за месяц целиком и за предыдущие месяцы, начиная с января 2011 года, Вы можете получить, выбрав интересующий диапазон дат из раскрывающегося списка и нажав кнопку "Ввод!".


*Определитесь, кто Вы:
робот инопланетянин человек

Внимание! Время в таблицах - всемирное. Для получения местного времени необходимо прибавить поправку, которая в Kuantan равна 7 ч.

Смотрите также архив погоды в соседних городах и на ближайших метеорологических станциях:

Погода в Kuala Trengganu (Малайзия) (178 км)
Погода в Mersing (Малайзия) (198 км)
Погода в Kuala Lumpur (Малайзия) (198 км)
Погода в Malacca (Малайзия) (199 км)
Погода в Kuala Lumpur Int Airport (Малайзия) (205 км)
Погода в Cameron Highlands (Малайзия) (218 км)
Погода в Johore Bharu / Senai (Малайзия) (245 км)
Погода в Ipoh (Малайзия) (250 км)
Погода в Singapore (Сингапур) (281 км)
Погода в Sitiawan (Малайзия) (283 км)

Пояснения к столбцам:

Ветер - указаны скорость ветра в м/с - средняя за 10 мин, порывы в срок и между сроками (в фигурных скобках) и направление, откуда дует ветер: С - северный, СВ - северо-восточный, В - восточный, ЮВ - юго-восточный, Ю - южный, ЮЗ - юго-западный, З - западный, СЗ - северо-западный.
Видимость - горизонтальная дальность видимости в метрах или километрах. При видимости от 1 до 10 км при отсутствии осадков обычно наблюдается дымка, при ухудшении видимости до 1 км и менее - туман. В сухую погоду видимость может ухудшаться дымом, пылью или мглою.
Явления - указаны атмосферные явления, наблюдавшиеся в срок или в последний час перед сроком; фигурными скобками обозначены явления, наблюдавшиеся между сроками (за 1-3 часа до срока); квадратными скобками обозначены град или гололедные отложения с указанием их диаметра в мм.
Облачность - указаны через наклонную черту общая и нижняя облачность в баллах и высота нижней границы облаков в метрах; квадратными скобками обозначены формы облаков: Ci - перистые, Cs - перисто-слоистые, Cc - перисто-кучевые, Ac - высококучевые, As - высокослоистые, Sc - слоисто-кучевые, Ns - слоисто-дождевые, Cu - кучевые, Cb - кучево-дождевые. Подробнее классификацию облаков см. в Атласе облаков (PDF).
T - Температура воздуха - температура, измеренная на высоте 2 м над землей.
Td - Температура точки росы - температура, при понижении до которой содержащийся в воздухе водяной пар достигнет насыщения.
f - Относительная влажность воздуха - влажноcть воздуха, измеренная на высоте 2 м над землей.
Te - Эффективная температура - температура, которую ощущает одетый по сезону человек в тени. Характеристика душности погоды. При расчете учитывается влияние влажности воздуха и скорости ветра на теплоощущения человека.
Tes - Эффективная температура на солнце - температура, которую ощущает человек, с поправкой на солнечный нагрев. Характеристика знойности погоды. Зависит от высоты солнца над горизонтом, облачности и скорости ветра. Ночью, в пасмурную погоду, а также при ветре 12 м/с и более поправка равна нулю.
P - Атмосферное давление - приведенное к уровню моря атмосферное давление.
Po - Атмосферное давление - измеренное на уровне метеостанции атмосферное давление.
Tmin - Минимальная температура - минимум температуры воздуха на высоте 2 м над землей.
Tmax - Максимальная температура - максимум температуры воздуха на высоте 2 м над землей.
R - Количество осадков - Количество выпавших осадков за период времени, мм. При наведении курсора мыши на число - период времени, за который выпало указанное количество осадков.
R24 - Количество осадков - Количество выпавших осадков за 24 часа, мм.
S - Снежный покров - Высота снежного покрова, см. При наведении курсора мыши на число - состояние снежного покрова и степень покрытия местности в баллах.